Theta_e
321 321 321 322 321 321 323 324 325 325 326 327 328 328 328 328 327 326 325 324 324 324 324 324 325 325 324 324 323 320 319 318 317 316 317 316 315 314 311 309 309 307 305
320 321 321 321 321 321 322 323 324 325 327 327 328 327 326 326 326 326 325 324 324 324 323 323 324 323 323 322 321 320 318 317 316 315 315 314 312 311 309 307 306 304 301
320 320 320 320 320 320 321 322 324 325 324 325 326 326 326 326 326 325 323 323 323 323 323 323 322 321 319 319 318 317 316 315 314 313 312 309 307 307 307 305 302 300 299
315 317 320 320 320 320 320 322 322 322 323 324 324 324 324 322 322 322 322 321 319 320 319 320 319 317 316 315 315 314 313 313 312 311 309 307 306 306 305 303 300 297 296
314 315 316 317 318 319 319 320 321 322 321 321 322 321 321 320 319 320 319 320 319 319 317 317 316 315 314 312 311 310 310 309 307 306 304 305 305 304 301 298 297 297 295
313 315 317 317 318 318 318 318 317 315 314 314 314 316 315 316 317 318 319 319 316 316 315 315 315 312 309 310 310 309 308 307 306 306 306 305 302 300 298 295 294 297 297
310 310 310 311 311 310 310 310 309 309 309 309 310 310 310 312 313 313 313 313 314 312 312 309 308 308 307 306 306 306 307 307 307 306 305 302 301 300 298 296 297 296 292
310 310 310 310 310 310 310 309 309 308 308 308 308 308 308 309 310 311 310 310 309 308 308 308 307 306 306 306 307 307 307 307 304 303 301 299 298 298 298 297 296 291 290
310 310 310 310 310 310 309 309 308 308 308 308 308 308 308 308 308 307 307 307 308 308 308 307 306 306 305 306 307 305 304 303 302 301 299 297 297 297 296 292 290 289 289
310 310 310 310 309 309 308 308 308 307 307 308 308 308 307 307 307 307 307 307 307 307 305 304 304 305 305 305 304 303 303 302 301 299 298 297 295 293 291 289 289 289 288
310 309 309 310 309 308 307 307 307 307 307 307 307 307 306 306 306 306 306 306 306 305 304 303 302 303 304 304 302 302 301 299 299 297 296 294 291 289 289 290 290 290 288
310 309 309 309 308 307 306 306 306 307 307 307 307 306 306 305 305 305 305 305 306 305 304 304 304 303 303 302 300 299 299 297 295 293 292 290 290 292 293 293 292 290 289
309 309 309 308 307 306 306 306 306 306 306 306 305 305 305 304 304 304 304 304 304 304 304 303 303 302 301 300 298 297 295 294 294 293 294 294 292 291 291 291 290 288 288
308 308 308 307 306 305 305 305 306 306 305 305 305 304 304 303 303 303 303 302 302 302 302 301 300 298 297 296 295 294 294 293 292 291 291 291 290 289 288 288 288 287 287
307 307 307 306 305 305 305 305 305 305 304 304 304 304 304 303 302 301 300 299 297 296 294 293 292 292 291 291 290 290 289 289 288 287 287 286 286 286 286 286 286 285 285
306 306 305 305 304 304 304 303 303 302 302 302 302 302 301 300 298 296 293 291 290 289 289 288 287 287 286 286 286 285 285 285 285 285 284 284 284 284 284 284 284 284 283
305 305 305 304 303 303 303 302 301 299 299 299 299 298 296 294 291 289 288 288 287 287 287 286 286 286 285 285 285 285 284 284 284 284 283 283 283 282 282 282 282 282 282
302 303 303 302 302 301 301 300 299 299 298 296 294 291 289 288 288 287 287 286 286 286 285 285 285 285 285 284 284 284 283 283 283 283 283 282 282 282 282 281 281 281 280
301 301 301 301 301 300 299 298 298 297 296 293 290 287 286 286 286 286 285 285 285 285 285 284 284 284 284 284 284 283 283 283 283 283 282 282 282 281 281 281 280 280 280
298 299 300 301 300 299 299 298 298 294 292 289 287 287 286 285 285 285 285 285 284 284 284 284 284 284 283 283 283 283 282 282 282 282 281 281 281 280 280 280 280 280 280
296 298 298 298 299 298 297 296 292 289 287 286 286 285 285 285 285 284 284 284 284 284 284 284 283 283 283 283 282 282 282 281 281 281 280 280 280 279 279 279 279 279 278
295 295 296 296 295 294 293 289 287 285 285 285 284 284 284 284 284 284 284 284 284 284 283 283 283 283 282 282 282 281 281 280 280 280 279 279 279 278 278 278 278 277 277
292 293 292 292 292 289 286 285 284 284 284 284 284 284 283 283 284 284 284 284 284 283 283 283 282 282 282 281 281 280 280 280 279 279 278 278 278 277 277 277 276 276 275
288 289 290 289 286 284 284 283 283 283 283 283 283 283 283 284 283 284 284 284 283 283 282 282 281 281 280 280 280 279 279 279 278 278 277 277 277 276 276 275 274 274 274
283 283 282 282 282 282 282 282 282 282 282 282 282 283 285 286 285 283 283 283 282 282 281 280 280 279 279 279 278 278 278 278 277 277 276 276 275 275 274 274 274 274 274
280 280 280 281 281 281 281 282 282 284 285 286 286 286 283 281 282 282 282 281 281 280 279 279 279 278 278 278 277 277 277 276 276 275 275 274 274 273 273 273 272 272 272
Wind_Speed
33 34 39 41 40 39 40 39 38 35 34 32 30 29 29 28 27 27 28 29 31 29 28 28 27 26 29 30 27 27 27 29 30 29 25 24 23 21 21 22 22 24 26
31 32 36 36 37 38 37 36 35 34 34 32 31 31 30 30 29 29 29 29 29 28 27 28 29 27 29 26 27 27 24 22 23 22 24 22 19 18 18 21 21 21 23
28 29 33 35 36 35 34 33 34 32 32 31 31 31 30 28 27 27 28 28 27 25 26 26 27 25 26 27 23 24 24 22 22 24 22 19 17 16 17 18 19 18 22
25 27 30 33 33 33 32 32 31 30 30 30 29 27 26 25 26 26 26 25 25 26 26 26 26 25 24 24 24 22 22 17 16 17 18 18 15 15 17 17 16 18 22
26 27 29 29 29 30 29 29 29 29 27 25 24 25 25 25 26 26 25 26 25 24 25 24 26 25 23 20 18 15 14 14 18 18 15 13 14 14 14 16 17 18 20
26 25 24 24 25 25 25 24 23 21 21 22 22 23 23 25 25 27 27 26 25 23 24 26 24 23 21 19 17 15 16 15 12 11 11 12 12 12 15 16 16 19 24
24 22 22 22 22 22 21 20 20 21 21 22 22 24 25 26 26 26 23 22 22 21 20 18 15 13 14 12 11 8 10 10 12 12 11 10 11 12 15 16 18 19 22
27 25 23 23 22 21 21 21 21 21 21 22 22 22 21 20 21 19 19 19 19 16 13 12 10 9 8 7 9 11 13 15 14 11 10 10 12 13 14 16 20 22 23
35 31 28 25 25 24 24 23 23 23 23 22 21 19 18 17 16 15 15 14 13 13 12 11 9 9 9 10 12 15 14 12 12 12 11 10 10 12 16 18 20 21 23
42 36 32 29 29 28 27 26 25 24 23 23 21 19 18 18 18 16 13 12 12 12 11 9 9 9 9 10 10 12 12 12 11 10 10 10 11 13 16 17 18 19 20
44 40 36 34 32 31 30 29 28 29 27 25 23 22 22 19 17 16 14 14 15 13 12 8 6 6 8 10 10 12 11 10 9 9 10 11 12 13 15 17 18 19 19
49 45 42 38 36 35 34 32 31 30 28 27 26 25 23 19 18 18 17 16 15 15 13 8 7 8 10 10 11 11 11 10 9 10 10 10 12 14 16 17 19 20 19
53 49 45 41 38 37 37 36 35 34 31 30 29 26 24 22 20 18 17 16 16 15 12 10 10 10 10 9 9 9 10 11 10 10 10 11 13 14 15 17 16 17 18
54 52 47 43 40 38 37 37 36 36 35 33 31 29 26 23 21 19 18 17 16 15 13 12 11 9 9 10 10 10 10 10 9 9 9 10 11 12 13 15 17 18 20
52 51 48 44 42 41 40 38 36 34 32 31 29 27 25 24 21 18 17 17 16 13 11 11 11 10 8 6 5 5 4 4 4 5 7 8 10 11 13 14 16 18 19
50 52 48 45 44 43 42 39 33 29 28 26 24 23 24 22 22 21 20 17 15 12 12 11 10 9 7 6 5 3 4 5 6 7 8 10 12 13 15 14 15 15 16
50 52 49 46 46 45 45 43 42 36 31 29 29 28 25 24 24 22 20 18 15 13 13 11 9 8 7 5 4 4 6 6 7 8 10 12 13 14 15 15 14 14 15
48 49 48 47 46 45 45 44 42 41 42 38 33 29 28 26 23 21 17 16 16 15 11 9 8 7 6 5 5 6 7 9 10 12 14 15 16 17 18 18 19 19 19
45 45 45 45 45 46 44 42 40 40 40 38 37 34 30 25 23 20 18 15 13 12 11 10 8 7 6 6 6 8 10 11 13 14 15 16 17 18 18 19 20 20 21
40 41 43 46 46 43 42 40 38 39 37 35 33 30 27 24 22 20 18 16 14 13 11 9 7 7 7 8 9 11 12 14 15 16 16 17 17 18 19 20 19 20 20
34 35 37 39 40 41 39 36 36 36 35 33 30 27 24 22 21 19 17 16 14 12 9 8 7 9 10 12 13 13 14 15 16 16 17 17 18 18 19 19 19 20 20
30 34 36 37 38 36 35 34 34 33 31 29 28 26 23 21 19 17 15 14 11 10 10 10 11 13 14 15 15 15 14 16 16 17 17 17 17 18 18 18 18 18 18
25 29 31 33 32 31 31 30 30 28 26 25 23 21 20 18 16 15 13 11 11 12 12 14 15 16 15 15 15 15 15 16 17 17 17 17 17 18 19 18 18 18 18
18 22 25 25 28 28 27 26 26 24 23 22 20 19 17 15 15 13 13 14 15 15 16 17 17 17 17 17 16 16 16 17 18 19 19 18 18 18 19 18 18 18 19
15 16 19 20 21 20 20 21 20 19 17 15 14 13 14 16 19 19 18 19 19 19 20 19 19 18 18 18 18 18 18 19 19 20 21 21 19 19 19 19 19 19 18
11 11 10 10 11 11 12 11 11 12 15 19 21 21 19 19 20 21 22 22 21 22 22 22 21 20 20 20 20 20 21 20 20 21 22 22 21 20 20 20 19 19 18
Wind_Direction
249 248 239 239 242 243 244 244 245 247 248 249 247 248 248 247 247 248 250 254 259 263 267 270 274 275 276 279 277 278 278 275 277 284 295 295 285 287 277 275 274 270 265
251 245 238 238 239 242 243 242 241 243 245 246 244 246 245 243 243 243 247 254 257 262 265 266 267 273 272 276 279 280 277 277 278 287 295 285 288 283 283 283 283 274 266
250 248 241 237 237 238 239 237 238 241 243 243 243 243 243 245 247 252 255 256 254 258 261 262 264 268 275 280 276 279 282 281 280 282 283 289 289 292 291 291 289 281 278
253 247 242 240 239 239 238 237 239 239 241 240 241 244 243 244 246 246 247 249 252 258 263 262 267 273 272 276 277 281 280 277 284 289 287 287 297 300 299 296 289 288 287
255 247 243 239 236 236 235 235 237 237 239 240 239 240 238 238 240 238 239 244 246 248 256 260 263 265 267 265 273 270 263 269 283 276 276 286 292 294 290 287 286 287 289
252 244 238 233 231 232 234 235 236 237 238 237 237 236 238 237 238 236 236 242 246 246 248 254 262 266 264 262 261 262 269 272 255 261 266 267 272 280 286 288 289 298 298
244 234 226 224 223 224 227 230 233 234 234 234 233 233 234 235 237 239 238 239 243 250 256 260 262 262 255 265 265 249 255 258 258 256 249 256 272 284 285 287 292 292 295
240 232 227 225 224 225 229 230 230 229 230 231 230 230 231 230 232 236 241 241 241 239 238 248 255 255 259 261 249 241 236 238 242 240 247 260 274 286 292 292 295 298 296
237 233 230 231 233 233 231 228 226 225 225 225 223 223 224 226 229 234 235 221 216 213 218 228 235 234 235 242 247 242 240 242 242 246 255 273 278 278 283 291 294 298 303
236 234 233 234 235 234 229 225 224 223 222 219 217 216 219 223 225 215 203 204 197 199 211 223 207 222 226 242 246 248 246 243 247 252 267 271 271 278 286 291 296 297 298
239 234 231 232 232 230 227 223 219 215 212 211 210 212 215 209 207 203 201 204 201 202 204 207 208 208 225 234 240 244 244 244 242 244 255 268 276 283 290 295 297 295 294
237 232 231 230 228 224 222 217 213 212 210 210 208 205 203 203 202 203 202 202 202 207 203 204 219 227 237 240 234 238 247 251 250 256 264 272 283 293 298 302 305 304 301
234 230 227 226 225 222 219 216 210 208 209 206 202 200 200 199 199 195 199 201 203 205 202 200 208 224 234 238 243 246 246 256 266 274 281 288 297 303 308 310 311 314 312
233 228 224 222 220 217 215 214 212 208 202 200 198 198 197 196 194 193 193 194 197 198 193 194 193 204 222 231 236 243 253 258 263 276 290 301 304 310 316 316 313 313 312
232 227 222 219 217 215 213 211 209 208 206 201 199 199 197 193 190 187 187 188 187 183 182 179 178 184 196 200 209 218 238 263 281 292 299 307 308 306 306 307 309 311 312
229 224 221 216 212 210 207 202 200 202 199 195 195 193 186 186 183 180 180 180 176 174 178 180 175 172 176 180 187 213 247 270 287 299 308 310 310 310 311 311 307 308 308
230 222 217 214 210 205 200 196 190 187 187 185 184 183 184 179 178 178 176 175 174 180 181 179 171 172 182 192 215 241 256 275 294 306 313 318 320 318 319 319 318 315 309
224 219 215 210 205 200 198 194 193 187 181 177 177 175 176 178 178 176 176 178 180 175 180 184 182 186 193 207 228 257 280 296 304 310 311 310 307 308 309 308 307 305 305
219 214 210 205 201 199 196 195 193 190 185 180 175 176 175 176 175 175 177 180 186 186 187 191 194 201 211 232 258 274 283 290 295 297 298 301 304 307 308 306 306 306 306
216 213 207 203 198 198 199 198 196 192 185 181 179 178 176 175 177 180 181 183 190 197 197 201 207 223 245 260 268 275 282 288 292 295 298 301 304 305 304 304 305 307 307
214 209 205 199 199 199 197 196 192 186 181 178 177 176 176 177 180 182 185 189 196 201 207 219 236 252 259 264 268 273 279 284 288 292 296 299 300 301 302 304 306 306 305
208 202 196 196 193 189 189 187 183 181 180 180 178 176 177 181 183 186 191 198 205 216 229 242 249 252 257 263 269 274 280 284 287 289 290 292 295 297 297 298 301 304 305
199 193 186 183 183 182 180 179 180 184 183 182 181 180 183 187 190 197 205 214 228 239 246 251 256 259 263 266 269 273 275 278 280 282 284 288 293 295 296 299 301 301 301
172 171 171 173 172 174 176 180 185 186 186 187 188 190 194 199 207 217 227 235 243 250 254 257 259 261 262 264 267 271 274 277 281 284 288 291 292 292 293 297 298 298 297
134 145 156 162 167 172 179 185 189 190 194 198 203 214 231 240 240 236 242 246 252 258 261 261 260 260 262 267 272 274 275 277 279 283 287 289 289 289 290 290 290 290 292
114 127 139 150 160 170 180 188 198 213 225 233 239 243 242 243 248 252 253 256 262 265 265 265 262 261 263 265 267 269 271 273 275 279 282 283 284 286 288 287 288 289 288